GW4198 Weather Reports


time (UTC)temp
C
wind
direction
speed
KPH
gust
KPH
rain 1hr
cm
rain 24hr
cm
rain mn
cm
humidity
%
barometer
mb
20260505140340 17 65 0.0 0.0 0.00 0.41 0.41 98 1006.4
20260505130303 16 82 0.0 0.0 0.00 0.41 0.41 99 1005.7
20260505124754 15 123 0.0 0.0 0.00 0.41 0.41 99 1005.5
20260505124251 15 112 0.0 0.0 0.00 0.41 0.41 99 1005.4
20260505123746 15 115 0.0 0.0 0.00 0.41 0.41 99 1005.3
20260505123243 15 112 0.0 0.0 0.00 0.41 0.41 99 1005.3
20260505122740 15 81 0.0 0.0 0.00 0.41 0.41 99 1005.3
20260505122237 15 148 1.6 3.2 0.00 0.41 0.41 99 1005.3
20260505121733 15 119 0.0 1.6 0.00 0.41 0.41 99 1005.0
20260505121230 15 118 1.6 3.2 0.00 0.41 0.41 99 1004.9
20260505120726 15 132 1.6 3.2 0.00 0.41 0.41 99 1005.2
20260505120223 15 145 0.0 0.0 0.00 0.41 0.41 99 1005.3
20260505115721 15 130 0.0 0.0 0.00 0.41 0.41 99 1005.7
20260505115219 15 116 0.0 0.0 0.00 0.41 0.41 99 1005.8
20260505114716 15 118 0.0 0.0 0.00 0.41 0.41 99 1005.8
20260505114212 15 118 0.0 0.0 0.00 0.41 0.41 99 1006.4
20260505113709 15 121 0.0 0.0 0.00 0.41 0.41 99 1006.5
20260505113206 15 117 0.0 0.0 0.00 0.41 0.41 99 1006.3
20260505112702 15 111 0.0 0.0 0.00 0.41 0.41 99 1006.8
20260505112200 15 108 0.0 0.0 0.00 0.41 0.41 99 1006.7
20260505111659 15 95 0.0 0.0 0.00 0.41 0.41 99 1006.5
20260505111155 15 81 0.0 0.0 0.00 0.41 0.41 99 1006.6
20260505110651 15 95 0.0 0.0 0.18 0.41 0.41 99 1006.7
20260505110149 15 133 0.0 0.0 0.30 0.41 0.41 99 1006.9
20260505102125 15 125 0.0 0.0 0.00 0.28 0.28 98 1005.7
20260505101623 15 88 0.0 0.0 0.18 0.28 0.28 98 1005.8
20260505101119 15 75 0.0 0.0 0.18 0.28 0.28 98 1006.0
20260505100616 15 98 0.0 0.0 0.00 0.25 0.25 98 1005.5
20260505100113 15 104 0.0 0.0 0.00 0.25 0.25 98 1006.6
20260505095609 15 51 0.0 0.0 0.13 0.25 0.25 98 1005.8
20260505095105 15 139 3.2 3.2 0.30 0.25 0.25 97 1005.2
20260505094602 15 87 0.0 0.0 0.30 0.23 0.23 97 1005.5
20260505094058 15 87 0.0 0.0 0.30 0.20 0.20 97 1006.7
20260505093554 15 87 0.0 0.0 0.18 0.18 0.18 96 1007.1
20260505093052 15 93 0.0 0.0 0.13 0.15 0.15 96 1006.9
20260505092549 15 124 0.0 0.0 0.30 0.15 0.15 96 1006.7
20260505092048 15 66 0.0 0.0 0.30 0.13 0.13 95 1006.1
20260505091544 16 142 0.0 0.0 0.30 0.10 0.10 94 1005.7
20260505091043 16 102 0.0 0.0 0.18 0.08 0.08 93 1006.2
20260505090540 16 83 0.0 0.0 0.13 0.05 0.05 91 1005.7
20260505090038 16 84 0.0 0.0 0.30 0.05 0.05 90 1005.5
20260505085535 16 84 0.0 0.0 0.18 0.03 0.03 89 1005.7
20260505085033 17 84 0.0 0.0 0.18 0.03 0.03 85 1005.7
20260505084531 17 83 0.0 0.0 0.00 0.00 0.00 82 1005.6
20260505084029 17 75 0.0 0.0 0.00 0.00 0.00 77 1005.2
20260505083526 17 75 0.0 0.0 0.00 0.00 0.00 75 1005.7
20260505083022 17 151 0.0 0.0 0.00 0.00 0.00 74 1005.5
20260505082518 17 103 0.0 0.0 0.00 0.00 0.00 75 1005.5
20260505082015 18 41 0.0 0.0 0.00 0.00 0.00 73 1004.9
20260505081512 18 99 0.0 1.6 0.00 0.00 0.00 72 1005.0
20260505081009 18 348 1.6 1.6 0.00 0.00 0.00 70 1004.8
20260505080505 18 168 0.0 0.0 0.00 0.00 0.00 73 1004.9
20260505080001 18 94 0.0 0.0 0.00 0.00 0.00 72 1004.7
20260505075457 18 93 0.0 0.0 0.00 0.00 0.00 71 1004.9
20260505074954 18 80 0.0 0.0 0.00 0.00 0.00 70 1004.8
20260505074452 18 95 0.0 0.0 0.00 0.00 0.00 70 1004.9
20260505073949 18 98 0.0 0.0 0.00 0.00 0.00 71 1005.1
20260505073446 18 94 0.0 0.0 0.00 0.00 0.00 71 1005.0
20260505072944 18 56 0.0 0.0 0.00 0.00 0.00 70 1005.0
20260505072440 18 81 0.0 0.0 0.00 0.00 0.00 71 1005.1
20260505071936 18 109 0.0 1.6 0.00 0.00 0.00 71 1005.3
20260505071432 18 105 0.0 0.0 0.00 0.00 0.00 70 1005.4
20260505070930 18 74 0.0 1.6 0.00 0.00 0.00 71 1005.5
20260505070427 18 97 0.0 1.6 0.00 0.00 0.00 71 1005.7
20260505065922 18 59 0.0 0.0 0.00 0.00 0.00 71 1005.8
20260505065419 18 104 0.0 1.6 0.00 0.00 0.00 70 1005.8
20260505064916 18 95 0.0 0.0 0.00 0.00 0.00 71 1005.8
20260505064413 18 88 0.0 0.0 0.00 0.00 0.00 71 1006.1
20260505063911 18 71 0.0 0.0 0.00 0.00 0.00 72 1006.0
20260505063407 18 95 0.0 0.0 0.00 0.00 0.00 72 1005.8
20260505062904 18 135 1.6 3.2 0.00 0.00 0.00 72 1006.2
20260505062401 18 114 1.6 1.6 0.00 0.00 0.00 72 1006.1
20260505061857 18 75 0.0 1.6 0.00 0.00 0.00 72 1006.1
20260505061356 18 91 0.0 0.0 0.00 0.00 0.00 73 1006.2
20260505060853 18 108 1.6 1.6 0.00 0.00 0.00 73 1006.4
20260505060350 18 103 0.0 0.0 0.00 0.00 0.00 74 1006.2
20260505055846 18 89 0.0 0.0 0.00 0.00 0.00 75 1006.3
20260505055342 17 110 1.6 1.6 0.00 0.00 0.00 73 1006.4
20260505054839 17 119 0.0 0.0 0.00 0.00 0.00 75 1006.4
20260505054337 17 95 0.0 0.0 0.00 0.00 0.00 77 1006.6
20260505053835 17 101 0.0 0.0 0.00 0.00 0.00 76 1006.6
20260505053331 17 104 0.0 0.0 0.00 0.00 0.00 77 1006.7
20260505052828 17 95 0.0 0.0 0.00 0.00 0.00 78 1006.8
20260505052325 17 100 0.0 0.0 0.00 0.00 0.00 77 1006.8
20260505051822 17 92 0.0 0.0 0.00 0.00 0.00 78 1007.0
20260505051320 17 92 0.0 0.0 0.00 0.00 0.00 77 1007.1
20260505050818 17 85 0.0 0.0 0.00 0.00 0.00 76 1007.0
20260505050316 17 92 0.0 0.0 0.00 0.00 0.00 77 1007.2
20260505041746 17 95 0.0 0.0 0.00 0.00 0.00 77 1007.4
20260505041243 17 99 0.0 0.0 0.00 0.00 0.00 77 1007.3
20260505040740 17 96 0.0 0.0 0.00 0.00 0.00 77 1007.3
20260505040238 17 96 0.0 0.0 0.00 0.00 0.00 76 1007.2
20260505035734 17 97 0.0 0.0 0.00 0.00 0.00 75 1007.8
20260505035230 18 92 0.0 0.0 0.00 0.00 0.00 75 1007.5
20260505034727 18 92 0.0 0.0 0.00 0.00 0.00 74 1007.5
20260505034224 18 93 0.0 0.0 0.00 0.00 0.00 74 1007.7
20260505033721 18 93 0.0 0.0 0.00 0.00 0.00 73 1007.7
20260505033219 18 88 0.0 0.0 0.00 0.00 0.00 73 1008.0
20260505032716 18 87 0.0 0.0 0.00 0.00 0.00 71 1007.7
20260505032212 18 97 0.0 0.0 0.00 0.00 0.00 73 1008.0
20260505031710 18 88 0.0 0.0 0.00 0.00 0.00 72 1007.8
20260505031206 18 89 0.0 0.0 0.00 0.00 0.00 73 1007.8
20260505030703 18 94 0.0 0.0 0.00 0.00 0.00 72 1007.5
20260505030159 18 95 0.0 0.0 0.00 0.00 0.00 71 1007.6
20260505025655 18 99 0.0 0.0 0.00 0.00 0.00 70 1007.5
20260505025153 19 93 0.0 0.0 0.00 0.00 0.00 70 1007.6
20260505024650 19 97 0.0 0.0 0.00 0.00 0.00 68 1007.6
20260505024147 20 88 0.0 0.0 0.00 0.00 0.00 69 1007.2
20260505023645 20 105 0.0 0.0 0.00 0.00 0.00 67 1007.3
20260505023142 20 107 0.0 1.6 0.00 0.00 0.00 66 1007.1
20260505022640 20 97 0.0 0.0 0.00 0.00 0.00 67 1007.1
20260505022137 19 108 0.0 1.6 0.00 0.00 0.00 67 1007.1
20260505021633 20 83 0.0 0.0 0.00 0.00 0.00 67 1007.0
20260505021130 20 93 0.0 0.0 0.00 0.00 0.00 66 1007.1
20260505020626 20 101 0.0 0.0 0.00 0.00 0.00 64 1006.8
20260505020122 20 115 0.0 0.0 0.00 0.00 0.00 64 1007.0
20260505015619 20 116 0.0 1.6 0.00 0.00 0.00 63 1006.8
20260505015116 20 141 3.2 4.8 0.00 0.00 0.00 63 1006.7
20260505014613 20 93 1.6 1.6 0.00 0.00 0.00 63 1006.6
20260505014110 20 60 0.0 0.0 0.00 0.00 0.00 63 1006.6
20260505013607 20 93 0.0 0.0 0.00 0.00 0.00 64 1006.6
20260505013104 20 60 1.6 3.2 0.00 0.00 0.00 64 1006.5
20260505012602 21 104 0.0 0.0 0.00 0.00 0.00 64 1006.4
20260505012059 21 103 0.0 0.0 0.00 0.00 0.00 61 1006.3
20260505011554 21 68 0.0 0.0 0.00 0.00 0.00 60 1006.5
20260505011052 21 102 0.0 0.0 0.00 0.00 0.00 61 1006.4
20260505010547 21 71 1.6 1.6 0.00 0.00 0.00 60 1006.3
20260505010044 21 76 0.0 0.0 0.00 0.00 0.00 60 1006.5
20260505005540 21 82 1.6 3.2 0.00 0.00 0.00 60 1006.3
20260505005038 21 269 0.0 1.6 0.00 0.00 0.00 60 1006.0
20260505004535 22 60 0.0 1.6 0.00 0.00 0.00 60 1005.8
20260505004031 22 132 0.0 1.6 0.00 0.00 0.00 59 1005.7
20260505003529 22 147 1.6 1.6 0.00 0.00 0.00 57 1005.6
20260505003026 22 98 1.6 1.6 0.00 0.00 0.00 58 1005.7
20260505002520 22 46 0.0 0.0 0.00 0.00 0.00 58 1005.8
20260505002020 22 112 1.6 1.6 0.00 0.00 0.00 56 1005.6
20260505001517 23 126 0.0 1.6 0.00 0.00 0.00 56 1005.8
20260505001014 23 122 1.6 1.6 0.00 0.00 0.00 56 1005.7
20260505000511 23 73 1.6 1.6 0.00 0.00 0.00 55 1005.8
20260505000009 23 124 6.4 6.4 0.00 0.00 0.00 54 1005.8
20260504235505 23 106 4.8 6.4 0.00 0.00 0.00 54 1005.8
20260504235001 23 148 3.2 3.2 0.00 0.00 0.00 54 1006.0
20260504234459 23 253 3.2 3.2 0.00 0.00 0.00 53 1006.0
20260504233956 23 105 1.6 1.6 0.00 0.00 0.00 53 1006.1
20260504233451 24 242 12.9 22.5 0.00 0.00 0.00 52 1006.2
20260504232948 24 100 3.2 3.2 0.00 0.00 0.00 53 1006.2
20260504232445 24 108 0.0 1.6 0.00 0.00 0.00 53 1006.2
20260504231943 24 112 0.0 0.0 0.00 0.00 0.00 53 1006.4
20260504231439 24 184 0.0 1.6 0.00 0.00 0.00 54 1006.3
20260504230935 24 84 6.4 11.3 0.00 0.00 0.00 52 1006.2
20260504230432 25 128 0.0 1.6 0.00 0.00 0.00 53 1006.3
20260504225931 25 84 3.2 3.2 0.00 0.00 0.00 51 1006.4
20260504225428 25 35 1.6 1.6 0.00 0.00 0.00 53 1006.2
20260504224925 25 227 0.0 1.6 0.00 0.00 0.00 51 1006.3
20260504224421 25 35 0.0 1.6 0.00 0.00 0.00 50 1006.4
20260504223919 25 306 4.8 9.7 0.00 0.00 0.00 49 1006.4
20260504223414 25 182 6.4 6.4 0.00 0.00 0.00 48 1006.5
20260504222910 26 266 3.2 3.2 0.00 0.00 0.00 49 1006.5
20260504222407 26 100 0.0 1.6 0.00 0.00 0.00 47 1006.4
20260504221906 26 78 3.2 6.4 0.00 0.00 0.00 48 1006.5
20260504221402 26 293 4.8 4.8 0.00 0.00 0.00 47 1006.4
20260504220859 26 147 3.2 3.2 0.00 0.00 0.00 47 1006.4
20260504220356 27 99 1.6 3.2 0.00 0.00 0.00 47 1006.5
20260504215853 26 165 1.6 1.6 0.00 0.00 0.00 47 1006.5
20260504215349 27 113 6.4 9.7 0.00 0.00 0.00 46 1006.6
20260504214846 27 214 3.2 4.8 0.00 0.00 0.00 47 1006.4
20260504214343 27 126 0.0 1.6 0.00 0.00 0.00 47 1006.5
20260504213839 27 144 4.8 4.8 0.00 0.00 0.00 47 1006.5
20260504213335 27 247 6.4 9.7 0.00 0.00 0.00 46 1006.7
20260504212833 26 98 4.8 9.7 0.00 0.00 0.00 46 1006.8
20260504212329 27 325 1.6 1.6 0.00 0.00 0.00 45 1006.7
20260504211827 27 259 8.0 11.3 0.00 0.00 0.00 44 1006.6
20260504211327 27 126 0.0 0.0 0.00 0.00 0.00 47 1006.6
20260504210825 27 119 3.2 3.2 0.00 0.00 0.00 45 1006.6
20260504210322 27 182 3.2 4.8 0.00 0.00 0.00 46 1006.9
20260504205819 27 294 0.0 1.6 0.00 0.00 0.00 44 1007.0
20260504205317 27 339 1.6 3.2 0.00 0.00 0.00 45 1007.0
20260504204815 27 245 3.2 3.2 0.00 0.00 0.00 44 1007.1
20260504204313 27 257 3.2 3.2 0.00 0.00 0.00 44 1006.9
20260504203812 27 82 8.0 11.3 0.00 0.00 0.00 45 1007.1
20260504203309 27 141 4.8 4.8 0.00 0.00 0.00 43 1007.4
20260504202804 27 69 6.4 6.4 0.00 0.00 0.00 43 1007.2
20260504202301 27 46 1.6 3.2 0.00 0.00 0.00 45 1007.3
20260504201758 26 84 1.6 3.2 0.00 0.00 0.00 43 1007.2
20260504201255 27 116 3.2 4.8 0.00 0.00 0.00 45 1007.4
20260504200753 27 80 3.2 3.2 0.00 0.00 0.00 47 1007.4
20260504200249 27 237 8.0 11.3 0.00 0.00 0.00 45 1007.4
20260504195746 27 102 3.2 4.8 0.00 0.00 0.00 45 1007.3
20260504195241 27 312 3.2 4.8 0.00 0.00 0.00 48 1007.5
20260504194739 27 101 3.2 3.2 0.00 0.00 0.00 46 1007.6
20260504194235 27 61 3.2 6.4 0.00 0.00 0.00 47 1007.7
20260504193731 27 282 4.8 9.7 0.00 0.00 0.00 44 1007.6
20260504193229 27 27 4.8 4.8 0.00 0.00 0.00 47 1007.7
20260504192727 26 341 3.2 4.8 0.00 0.00 0.00 46 1007.8
20260504192225 26 22 3.2 4.8 0.00 0.00 0.00 48 1008.0
20260504191723 26 355 4.8 6.4 0.00 0.00 0.00 47 1007.9
20260504191220 26 108 8.0 11.3 0.00 0.00 0.00 47 1007.9
20260504190715 26 81 1.6 1.6 0.00 0.00 0.00 48 1008.0
20260504190212 26 94 3.2 4.8 0.00 0.00 0.00 47 1008.0
20260504185708 26 49 3.2 4.8 0.00 0.00 0.00 48 1007.9
20260504185205 26 114 3.2 4.8 0.00 0.00 0.00 46 1008.0
20260504184701 26 221 3.2 4.8 0.00 0.00 0.00 47 1008.1
20260504184156 26 203 4.8 4.8 0.00 0.00 0.00 46 1008.1
20260504183653 26 150 1.6 1.6 0.00 0.00 0.00 47 1008.2
20260504183150 26 91 0.0 1.6 0.00 0.00 0.00 47 1008.2
20260504182648 26 17 3.2 4.8 0.00 0.00 0.00 46 1008.3
20260504182145 26 262 1.6 1.6 0.00 0.00 0.00 46 1008.3
20260504181643 26 295 8.0 9.7 0.00 0.00 0.00 46 1008.3
20260504181140 26 152 6.4 6.4 0.00 0.00 0.00 46 1008.5
20260504180639 26 94 1.6 1.6 0.00 0.00 0.00 46 1008.3
20260504180137 26 165 9.7 12.9 0.00 0.00 0.00 46 1008.3
20260504175634 26 160 1.6 1.6 0.00 0.00 0.00 50 1008.5
20260504175131 26 101 3.2 6.4 0.00 0.00 0.00 48 1008.6
20260504174629 25 10 3.2 4.8 0.00 0.00 0.00 48 1008.8
20260504174125 25 102 3.2 4.8 0.00 0.00 0.00 47 1008.8
20260504173623 25 245 6.4 6.4 0.00 0.00 0.00 45 1008.8
20260504173120 25 126 6.4 6.4 0.00 0.00 0.00 46 1009.1
20260504172616 25 254 4.8 4.8 0.00 0.00 0.00 46 1009.0
20260504172113 25 117 3.2 6.4 0.00 0.00 0.00 45 1009.1
20260504171609 25 66 3.2 3.2 0.00 0.00 0.00 46 1009.1
20260504171107 25 155 6.4 9.7 0.00 0.00 0.00 45 1009.2
20260504170602 25 91 3.2 4.8 0.00 0.00 0.00 46 1009.2
20260504150946 22 74 1.6 3.2 0.00 0.00 0.00 52 1010.4
20260504150443 22 205 3.2 3.2 0.00 0.00 0.00 51 1010.2